Flag for Germany Weather past 2 weeks in Tübingen, Baden-Württemberg, Germany

Now
55 °F

Sunny.


Feels Like: 55 °F
Forecast: 40 / 63 °F
Wind: 3 mph from East

Location: Stuttgart-Echterdingen


UV Index: 0 (Low)

Visibility: 10 mi


Pressure: 29.68 "Hg

Humidity: 59%

Dew point: 41 °F

Location of TübingenLocation

Historic Weather in Tübingen

°F

Tübingen temperature yesterday

Maximum temperature yesterday: 57 °F (at 4:50 PM)
Minimum temperature yesterday: 37 °F (at 12:20 AM)
Average temperature yesterday: 46 °F

Past Weeks' High & Low Weather Summary

 TemperatureHumidityPressure
High70 °F (Apr 7, 2:20 PM)100% (Apr 19, 3:50 AM)30.36 "Hg (Apr 19, 3:50 AM)
Low32 °F (Apr 16, 6:20 AM)21% (Apr 17, 5:20 PM)29.65 "Hg (Apr 20, 4:50 PM)
Average51 °F63%30.07 "Hg
* Reported Apr 5 7:20 PM — Apr 20 7:50 PM, Tübingen, Weather by CustomWeather, © 2014

Note: Actual official high and low records may vary slightly from our data, if they occured in-between our weather recording intervals... More about our weather records

Advertising

Historic Weather Conditions — Data for Previous 24 hours

 ConditionsComfort  
Time TempWeatherWind HumidityBarometerVisibility
7:50 PM
Apr 20
59 °FSunny.3 mph51%29.65 "Hg10 mi
7:20 PM61 °FSunny.8 mph45%29.65 "Hg10 mi
6:50 PM63 °FSunny.8 mph42%29.65 "Hg10 mi
6:20 PM63 °FSunny.8 mph42%29.65 "Hg10 mi
5:50 PM63 °FSunny.6 mph42%29.65 "Hg10 mi
5:20 PM63 °FSunny.13 mph42%29.65 "Hg10 mi
4:50 PM64 °FSunny.8 mph43%29.65 "Hg10 mi
4:20 PM64 °FSunny.12 mph43%29.68 "Hg10 mi
3:50 PM63 °FPartly sunny.9 mph45%29.68 "HgN/A
3:20 PM63 °FPartly sunny.9 mph45%29.68 "HgN/A
2:50 PM63 °FPartly sunny.8 mph49%29.68 "HgN/A
2:20 PM63 °FBroken clouds.8 mph49%29.68 "HgN/A
1:50 PM61 °FScattered clouds.6 mph52%29.68 "HgN/A
1:20 PM61 °FScattered clouds.6 mph52%29.71 "HgN/A
12:50 PM59 °FScattered clouds.7 mph55%29.71 "HgN/A
12:20 PM59 °FScattered clouds.6 mph59%29.71 "HgN/A
11:50 AM57 °FScattered clouds.6 mph63%29.71 "HgN/A
11:20 AM57 °FPassing clouds.8 mph72%29.71 "HgN/A
10:50 AM57 °FPassing clouds.9 mph67%29.71 "HgN/A
10:20 AM57 °FPassing clouds.6 mph72%29.71 "HgN/A
9:50 AM54 °FPassing clouds.5 mph82%29.71 "HgN/A
9:20 AM52 °FSunny.2 mph82%29.71 "Hg10 mi
8:50 AM48 °FSunny.2 mph87%29.71 "Hg10 mi
8:20 AM46 °FSunny.2 mph93%29.71 "Hg10 mi
7:50 AM46 °FSunny.2 mph87%29.71 "Hg10 mi
7:20 AM46 °FFog.3 mph87%29.71 "HgN/A
6:50 AM45 °FPassing clouds.1 mph93%29.71 "HgN/A
6:20 AM45 °FPassing clouds.6 mph87%29.71 "HgN/A
5:50 AM45 °FPassing clouds.1 mph93%29.71 "HgN/A
5:20 AM45 °FPassing clouds.3 mph87%29.71 "HgN/A
4:50 AM46 °FPassing clouds.3 mph87%29.71 "HgN/A
4:20 AM46 °FClear.2 mph87%29.71 "Hg10 mi
3:50 AM48 °FClear.7 mph82%29.71 "Hg10 mi
3:20 AM45 °FClear.7 mph93%29.74 "Hg10 mi
2:50 AM46 °FClear.3 mph87%29.74 "Hg10 mi
2:20 AM46 °FClear.5 mph87%29.74 "Hg10 mi
1:50 AM48 °FPassing clouds.5 mph82%29.74 "HgN/A
1:20 AM48 °FPassing clouds.6 mph82%29.77 "HgN/A
12:50 AM48 °FPassing clouds.7 mph82%29.77 "HgN/A
12:20 AM50 °FPassing clouds.6 mph82%29.77 "HgN/A
11:50 PM
Apr 19
50 °FPassing clouds.7 mph82%29.77 "HgN/A
11:20 PM52 °FPassing clouds.9 mph82%29.77 "HgN/A
10:50 PM50 °FPassing clouds.7 mph88%29.77 "HgN/A
10:20 PM52 °FPassing clouds.5 mph77%29.77 "HgN/A
9:50 PM52 °FPassing clouds.3 mph77%29.80 "HgN/A
9:20 PM52 °FPassing clouds.3 mph77%29.80 "HgN/A
8:50 PM54 °FScattered clouds.2 mph72%29.80 "HgN/A
8:20 PM55 °FPartly sunny.2 mph67%29.77 "HgN/A
Weather by CustomWeather, © 2014

See weather overview